Gadsden, AL

3:50 AM CDT on April 25, 2018 (GMT -0500)
Gadsden Municipal

Weather History for KGAD - November, 2011

Change the Weather History Date:

Sunday, November 20, 2011

  Actual Average Record
Temperature  
Mean Temperature 60 °F -  
Max Temperature 66 °F 59 °F 80 °F (1942)
Min Temperature 55 °F 37 °F 18 °F (1951)
Degree Days  
Heating Degree Days 4    
Growing Degree Days 10 (Base 50)    
Moisture  
Dew Point 53 °F    
Average Humidity 78    
Maximum Humidity 94    
Minimum Humidity 67    
Precipitation  
Precipitation 0.00 in - - ()
Sea Level Pressure  
Sea Level Pressure 30.26 in    
Wind  
Wind Speed 4 mph (ESE)    
Max Wind Speed 9 mph    
Max Gust Speed -    
Visibility 8 miles    
Events      
Averages and records for this station are not official NWS values.
T = Trace of Precipitation, MM = Missing Value Source: NWS Daily Summary

Daily Weather History Graph

Daily Weather History Graph

Search for Another Location

Airport or City:

Astronomy

Nov. 20, 2011 Rise Set
Actual Time 6:21 AM CST 4:38 PM CST
Civil Twilight 5:54 AM CST 5:05 PM CST
Nautical Twilight 5:24 AM CST 5:35 PM CST
Astronomical Twilight 4:54 AM CST 6:05 PM CST
Moon 1:02 AM CST (11/20) 1:15 PM CST (11/20)
Length of Visible Light 11h 10m
Length of Day
10h 17m
Waning Crescent, 27% of the Moon is Illuminated
Nov 20
Waning Crescent
Nov 25
New
Dec 2
First Quarter
Dec 10
Full
Dec 17
Last Quarter

Hourly Weather History & Observations

Time (CST) Temp. Dew Point Humidity Pressure Visibility Wind Dir Wind Speed Gust Speed Precip Events Conditions
12:15 AM 59.0 °F 50.0 °F 72% 30.26 in 10.0 mi Calm Calm - N/A   Overcast
12:35 AM 57.2 °F 50.0 °F 77% 30.25 in 10.0 mi NE 5.8 mph - N/A   Overcast
12:55 AM 57.2 °F 50.0 °F 77% 30.25 in 10.0 mi NE 5.8 mph - N/A   Overcast
1:15 AM 57.2 °F 48.2 °F 72% 30.25 in 10.0 mi NE 5.8 mph - N/A   Overcast
1:35 AM 57.2 °F 48.2 °F 72% 30.26 in 10.0 mi NNE 4.6 mph - N/A   Overcast
1:55 AM 57.2 °F 48.2 °F 72% 30.26 in 10.0 mi NE 3.5 mph - N/A   Overcast
2:35 AM 55.4 °F 46.4 °F 72% 30.26 in 10.0 mi East 5.8 mph - N/A   Overcast
2:55 AM 55.4 °F 44.6 °F 67% 30.25 in 10.0 mi East 6.9 mph - N/A   Overcast
3:15 AM 55.4 °F 44.6 °F 67% 30.25 in 10.0 mi ENE 6.9 mph - N/A   Overcast
3:35 AM 55.4 °F 44.6 °F 67% 30.25 in 10.0 mi ENE 6.9 mph - N/A   Overcast
4:15 AM 55.4 °F 44.6 °F 67% 30.25 in 10.0 mi NE 6.9 mph - N/A   Overcast
4:35 AM 55.4 °F 44.6 °F 67% 30.26 in 10.0 mi NE 5.8 mph - N/A   Overcast
4:55 AM 55.4 °F 44.6 °F 67% 30.26 in 10.0 mi NE 4.6 mph - N/A   Overcast
7:15 AM 55.4 °F 44.6 °F 67% 30.28 in 10.0 mi ENE 6.9 mph - N/A   Overcast
7:35 AM 55.4 °F 44.6 °F 67% 30.28 in 10.0 mi East 5.8 mph - N/A   Overcast
7:55 AM 57.2 °F 46.4 °F 67% 30.29 in 10.0 mi ENE 3.5 mph - N/A   Overcast
8:15 AM 57.2 °F 46.4 °F 67% 30.30 in 10.0 mi East 4.6 mph - N/A   Overcast
8:35 AM 57.2 °F 46.4 °F 67% 30.30 in 10.0 mi ENE 4.6 mph - N/A   Overcast
8:55 AM 57.2 °F 48.2 °F 72% 30.30 in 10.0 mi East 5.8 mph - N/A   Overcast
9:15 AM 59.0 °F 48.2 °F 67% 30.30 in 10.0 mi East 3.5 mph - N/A   Overcast
9:35 AM 59.0 °F 48.2 °F 67% 30.31 in 10.0 mi Calm Calm - N/A   Overcast
9:55 AM 60.8 °F 50.0 °F 68% 30.30 in 10.0 mi Calm Calm - N/A   Overcast
10:15 AM 60.8 °F 51.8 °F 72% 30.30 in 10.0 mi East 3.5 mph - N/A   Overcast
10:35 AM 62.6 °F 51.8 °F 68% 30.29 in 10.0 mi ESE 3.5 mph - N/A   Overcast
10:55 AM 62.6 °F 55.4 °F 77% 30.29 in 10.0 mi SE 4.6 mph - N/A   Overcast
11:15 AM 64.4 °F 55.4 °F 73% 30.28 in 10.0 mi South 3.5 mph - N/A   Overcast
11:35 AM 64.4 °F 57.2 °F 77% 30.28 in 10.0 mi SW 4.6 mph - N/A   Overcast
11:55 AM 64.4 °F 57.2 °F 77% 30.27 in 10.0 mi Calm Calm - N/A   Overcast
12:15 PM 64.4 °F 57.2 °F 77% 30.26 in 10.0 mi ESE 3.5 mph - N/A   Overcast
12:55 PM 66.2 °F 59.0 °F 78% 30.24 in 10.0 mi SSW 6.9 mph - N/A   Overcast
1:15 PM 66.2 °F 59.0 °F 78% 30.25 in 10.0 mi SSW 5.8 mph - N/A   Overcast
1:35 PM 66.2 °F 59.0 °F 78% 30.24 in 10.0 mi WSW 5.8 mph - N/A   Overcast
1:55 PM 66.2 °F 59.0 °F 78% 30.24 in 10.0 mi West 5.8 mph - N/A   Overcast
2:15 PM 66.2 °F 59.0 °F 78% 30.25 in 10.0 mi West 3.5 mph - N/A   Mostly Cloudy
2:35 PM 66.2 °F 60.8 °F 83% 30.25 in 10.0 mi West 4.6 mph - N/A   Mostly Cloudy
2:55 PM 66.2 °F 59.0 °F 78% 30.25 in 10.0 mi SW 3.5 mph - N/A   Mostly Cloudy
3:15 PM 66.2 °F 59.0 °F 78% 30.25 in 10.0 mi SSW 5.8 mph - N/A   Mostly Cloudy
3:35 PM 66.2 °F 59.0 °F 78% 30.25 in 10.0 mi SSW 3.5 mph - N/A   Partly Cloudy
3:55 PM 66.2 °F 59.0 °F 78% 30.25 in 10.0 mi SW 3.5 mph - N/A   Scattered Clouds
4:15 PM 66.2 °F 59.0 °F 78% 30.25 in 10.0 mi SW 3.5 mph - N/A   Partly Cloudy
4:55 PM 64.4 °F 59.0 °F 83% 30.25 in 10.0 mi South 3.5 mph - N/A   Clear
5:15 PM 64.4 °F 59.0 °F 83% 30.26 in 10.0 mi SSE 4.6 mph - N/A   Scattered Clouds
5:35 PM 64.4 °F 57.2 °F 77% 30.25 in 10.0 mi Calm Calm - N/A   Scattered Clouds
6:15 PM 64.4 °F 57.2 °F 77% 30.26 in 10.0 mi South 3.5 mph - N/A   Mostly Cloudy
6:35 PM 62.6 °F 57.2 °F 82% 30.27 in 10.0 mi Calm Calm - N/A   Scattered Clouds
6:55 PM 62.6 °F 57.2 °F 82% 30.27 in 10.0 mi Calm Calm - N/A   Mostly Cloudy
7:35 PM 62.6 °F 57.2 °F 82% 30.29 in 10.0 mi NNW 9.2 mph - N/A   Overcast
7:55 PM 62.6 °F 59.0 °F 88% 30.27 in 9.0 mi South 4.6 mph - N/A   Overcast
8:15 PM 62.6 °F 59.0 °F 88% 30.26 in 10.0 mi Calm Calm - N/A   Mostly Cloudy
8:55 PM 60.8 °F 57.2 °F 88% 30.26 in 5.0 mi Calm Calm - N/A   Partly Cloudy
9:15 PM 59.0 °F 57.2 °F 94% 30.26 in 0.5 mi Calm Calm - N/A   Unknown
9:35 PM 57.2 °F 55.4 °F 94% 30.26 in 0.5 mi Calm Calm - N/A   Unknown
9:55 PM 57.2 °F 55.4 °F 94% 30.26 in 0.2 mi Calm Calm - N/A   Unknown
10:15 PM 57.2 °F 55.4 °F 94% 30.25 in 0.2 mi Calm Calm - N/A   Unknown
10:35 PM 55.4 °F 53.6 °F 94% 30.25 in 0.2 mi Calm Calm - N/A   Unknown
10:56 PM 55.4 °F 53.6 °F 94% 30.25 in 0.2 mi Calm Calm - N/A   Unknown
11:15 PM 55.4 °F 53.6 °F 94% 30.24 in 0.2 mi Calm Calm - N/A   Unknown
11:35 PM 55.4 °F 53.6 °F 94% 30.25 in 0.2 mi Calm Calm - N/A   Mostly Cloudy
11:55 PM 55.4 °F 53.6 °F 94% 30.24 in 0.2 mi Calm Calm - N/A   Unknown